Location: *
(46.1833°N, 22.7667°E)
Time: 19:59:41
(UTC+00:00)

SL-16 R/B - Pass Details

Date: 17 September 2019
Orbit: 840 x 849 km, 71.0° (Epoch: 21 October)

Event Time Altitude Azimuth Distance (km) Brightness Sun altitude
Rises 16:59:26 0° 341° (NNW) 3,414 5.7 -4.6°
Reaches altitude 10° 17:03:57 10° 14° (NNE) 2,477 4.6 -5.4°
Maximum altitude 17:05:47 12° 34° (NNE) 2,370 4.3 -5.7°
Drops below altitude 10° 17:07:38 10° 53° (NE) 2,476 4.2 -6.0°
Enters shadow 17:10:16 - 75° (ENE) 2,940 4.5 -6.5°
